Regional Weather Roundup
Issued by NWS Columbia, SC

Home | Current Version | Previous Version | Text Only | Print | Product List | Glossary On
Versions: 1 2 3 4 5 6 7 8 9 10 11 12 13 14 15 16 17 18 19 20 21 22 23 24 25 26 27 28 29 30 31 32 33 34 35 36 37 38 39 40 41 42 43 44 45 46 47 48 49 50
000
ASUS42 KCAE 020110
RWRCAE
REGIONAL WEATHER ROUNDUP
NATIONAL WEATHER SERVICE COLUMBIA SC
900 PM EDT WED JUL 01 2015

NOTE: "FAIR" INDICATES FEW OR NO CLOUDS BELOW 12,000 FEET WITH NO
SIGNIFICANT WEATHER AND/OR OBSTRUCTIONS TO VISIBILITY.

NOT ALL STATIONS ARE QUALITY CONTROLLED BY THE NATIONAL
WEATHER SERVICE. USE DATA WITH CAUTION...ESPECIALLY
DEWPOINT OBSERVATIONS.

SCZ001>056-GAZ040-063>065-077-020200-
...UPSTATE SOUTH CAROLINA...

CITY           SKY/WX    TMP DP  RH WIND       PRES   REMARKS
ANDERSON       LGT RAIN  71  67  87 W6        30.04R
SPARTANBURG      N/A     79  70  73 W7        29.99S
CLEMSON        CLOUDY    71  66  84 W8        30.04R
GREENVILLE     CLOUDY    75  67  76 W9        30.02R
GREENWOOD      LGT RAIN  73  68  84 SW14      30.05R
GREER          CLOUDY    76  67  73 W7        29.99S
ROCK HILL      CLOUDY    79  69  71 SW7       29.98R
CHESTER        CLOUDY    81  66  61 CALM      29.98S
LAURENS        CLOUDY    79  73  83 CALM      30.00R


...CENTRAL SOUTH CAROLINA...

CITY           SKY/WX    TMP DP  RH WIND       PRES   REMARKS
COLUMBIA APT   CLOUDY    81  68  64 W6        29.98R
COLUMBIA OWENS PTCLDY    82  68  62 SW5       29.99S
DARLINGTON     PTCLDY    79  70  73 S5        29.98R
FLORENCE       PTCLDY    80  73  79 SW5       29.97R
MCENTIRE ANGB  PTCLDY    80  69  68 SW3       29.99R
ORANGEBURG     CLEAR     78  71  79 SW6       30.00R
SUMTER SHAW    PTCLDY    80  71  74 SW5       29.96S
NEWBERRY       MOCLDY    79  70  73 SW7       30.02S
BARNWELL       FAIR      81  72  74 CALM      30.01S
MANNING        FAIR      77  70  78 CALM      29.99R
CAMDEN         FAIR      82  68  61 SW5       29.98S
LANCASTER      MOCLDY    77  72  83 SW3       29.98R
WINNSBORO      MOCLDY    79  70  73 SW6       29.99R


...EASTERN AND COASTAL SOUTH CAROLINA...

CITY           SKY/WX    TMP DP  RH WIND       PRES   REMARKS
MYRTLE BEACH   MOCLDY    82  70  65 SW7       30.00S
N MYRTLE BCH   MOCLDY    81  70  69 W5        29.98S
CONWAY         FAIR      77  73  88 S3        29.99R FOG
MARION         FAIR      79  72  78 CALM      29.97S
HARTSVILLE     FAIR      77  70  78 SW3       29.97R
FLORENCE       PTCLDY    80  73  79 SW5       29.97R
DARLINGTON     PTCLDY    79  70  73 S5        29.98R
CHARLESTON APT CLOUDY    81  71  71 SW6       30.00R
MOUNT PLEASANT LGT RAIN  82  73  74 SW5       30.00S
WALTERBORO     PTCLDY    79  72  78 SW3       30.01R
BEAUFORT       MOCLDY    83  74  74 CALM      30.00S


...EASTERN GEORGIA...

CITY           SKY/WX    TMP DP  RH WIND       PRES   REMARKS
AUGUSTA BUSH F PTCLDY    80  70  71 SW5       30.00R
AUGUSTA DANIEL PTCLDY    82  69  64 VRB3      30.02R
THOMSON        MOCLDY    81  73  77 W10G16    30.07R
WASHINGTON     RAIN      73  72  94 W16G22    30.06R
CLAXTON        FAIR      81  73  78 CALM      30.02R
SYLVANIA       PTCLDY    81  76  84 CALM      30.02S
STATESBORO     MOCLDY    80  78  92 CALM      30.02R
SAVANNAH       CLOUDY    84  71  65 SW5       30.01R


...SOUTHERN NORTH CAROLINA...

CITY           SKY/WX    TMP DP  RH WIND       PRES   REMARKS
CHARLOTTE      CLOUDY    80  66  62 SW8       29.97R
MONROE         CLOUDY    79  67  66 SW7       29.97R
WADESBORO      MOCLDY    79  67  65 CALM      29.96R
ROCKINGHAM     PTCLDY    78  71  78 SW3       29.97R
RUTHERFORDTON  CLOUDY    71  71  98 SW3       30.00S FOG
ASHEVILLE      CLOUDY    70  65  84 NW3       30.05F

$$


USA.gov is the U.S. government's official web portal to all federal, state and local government web resources and services.